DW7287 Weather Reports


Display with metric or nautical units.
time (UTC)temp
F
wind
direction
speed
MPH
gust
MPH
rain 1hr
in
rain 24hr
in
rain mn
in
humidity
%
barometer
mb
20260507021556 54 0 0.0 2.0 0.00 0.76 0.74 93 1013.7
20260507014555 54 360 0.0 3.0 0.00 0.76 0.74 93 1013.1
20260507013054 54 360 0.0 1.0 0.00 0.76 0.74 93 1012.7
20260507011555 54 360 0.0 1.0 0.00 0.76 0.74 92 1012.9
20260507010055 54 0 0.0 1.0 0.00 0.76 0.74 92 1012.6
20260507004552 55 0 0.0 0.0 0.00 0.76 0.74 92 1012.7
20260507003106 55 0 0.0 1.0 0.00 0.76 0.74 92 1012.5
20260507001611 55 0 0.0 2.0 0.00 0.76 0.74 91 1012.4
20260507000056 55 0 0.0 1.0 0.00 0.76 0.74 91 1012.7
20260506234555 55 360 0.0 1.0 0.00 0.76 0.74 90 1012.1
20260506233058 56 0 0.0 1.0 0.00 0.76 0.74 90 1011.9
20260506231734 56 0 0.0 2.0 0.00 0.76 0.74 90 1012.7
20260506230112 56 0 0.0 1.0 0.00 0.76 0.74 89 1012.5
20260506224551 56 0 0.0 1.0 0.00 0.76 0.74 89 1012.6
20260506223052 56 0 0.0 1.0 0.00 0.76 0.74 88 1012.3
20260506221605 56 360 0.0 1.0 0.00 0.76 0.74 87 1012.5
20260506220056 56 0 0.0 2.0 0.00 0.76 0.74 86 1012.3
20260506214556 57 360 0.0 2.0 0.00 0.76 0.74 87 1012.0
20260506213051 56 360 0.0 3.0 0.00 0.76 0.74 87 1012.1
20260506211555 56 0 0.0 4.0 0.00 0.76 0.74 87 1012.1
20260506210057 56 360 1.0 3.0 0.00 0.76 0.74 88 1012.0
20260506204558 56 360 0.0 1.0 0.00 0.76 0.74 87 1012.1
20260506203119 56 0 0.0 2.0 0.00 0.76 0.74 86 1012.2
20260506201556 56 0 0.0 3.0 0.00 0.76 0.74 87 1011.8
20260506194554 55 360 0.0 4.0 0.00 0.76 0.74 86 1011.8
20260506193104 54 360 1.0 3.0 0.00 0.76 0.74 88 1011.8
20260506191556 54 360 0.0 3.0 0.00 0.76 0.74 89 1011.8
20260506190058 54 360 0.0 5.0 0.00 0.76 0.74 89 1011.7
20260506184553 54 0 0.0 4.0 0.00 0.76 0.74 90 1011.8
20260506183053 54 360 2.0 5.0 0.00 0.76 0.74 89 1011.6
20260506181556 54 360 2.0 9.0 0.00 0.76 0.74 89 1011.7
20260506180055 54 360 2.0 8.0 0.00 0.76 0.74 90 1011.7
20260506174555 54 360 2.0 6.0 0.00 0.76 0.74 89 1011.6
20260506173059 55 360 1.0 8.0 0.00 0.76 0.74 90 1011.7
20260506171554 55 360 2.0 8.0 0.00 0.76 0.74 91 1011.6
20260506170107 55 360 3.0 11.0 0.00 0.76 0.74 91 1011.3
20260506164624 55 360 4.0 10.0 0.00 0.76 0.74 93 1011.4
20260506163101 55 360 3.0 8.0 0.00 0.76 0.74 94 1011.2
20260506161554 54 360 2.0 6.0 0.00 0.76 0.74 93 1011.2
20260506160113 54 360 2.0 6.0 0.01 0.76 0.74 93 1011.1
20260506154557 54 360 3.0 8.0 0.01 0.76 0.74 92 1010.9
20260506153051 55 360 2.0 9.0 0.01 0.76 0.74 92 1010.5
20260506151556 57 360 3.0 9.0 0.02 0.76 0.74 92 1010.0
20260506144551 60 360 1.0 5.0 0.02 0.75 0.73 95 1009.4
20260506143057 59 360 0.0 5.0 0.02 0.75 0.73 95 1009.4
20260506141551 59 360 0.0 3.0 0.01 0.74 0.72 95 1009.3
20260506140051 59 360 1.0 4.0 0.02 0.74 0.72 95 1008.8
20260506134554 59 0 0.0 3.0 0.03 0.73 0.71 95 1008.6
20260506133108 58 360 0.0 3.0 0.04 0.73 0.71 95 1008.2
20260506131611 58 360 1.0 4.0 0.04 0.73 0.71 96 1008.1
20260506130053 58 360 1.0 3.0 0.05 0.72 0.70 95 1008.1
20260506124552 57 360 0.0 8.0 0.04 0.70 0.68 95 1008.2
20260506123056 57 0 0.0 4.0 0.05 0.69 0.67 95 1007.8
20260506121556 57 360 0.0 3.0 0.09 0.69 0.67 95 1008.0
20260506120104 57 0 0.0 2.0 0.09 0.67 0.65 95 1007.7
20260506114550 57 0 0.0 1.0 0.08 0.66 0.64 95 1007.9
20260506113052 57 0 0.0 1.0 0.08 0.64 0.62 95 1008.1
20260506111555 57 0 0.0 2.0 0.09 0.60 0.58 95 1007.9
20260506110109 57 360 0.0 2.0 0.10 0.58 0.56 95 1007.8
20260506104611 57 0 0.0 2.0 0.13 0.58 0.56 95 1007.5
20260506103050 57 0 0.0 4.0 0.15 0.56 0.54 95 1007.4
20260506101553 57 360 0.0 3.0 0.20 0.51 0.49 95 1007.1
20260506094600 57 0 0.0 1.0 0.18 0.45 0.43 94 1006.8
20260506093053 57 0 0.0 3.0 0.16 0.41 0.39 94 1006.9
20260506091551 57 0 0.0 2.0 0.08 0.31 0.29 94 1007.1
20260506090051 57 0 0.0 2.0 0.12 0.29 0.27 93 1007.4
20260506084624 57 0 0.0 2.0 0.12 0.27 0.25 93 1007.9
20260506083056 57 0 0.0 2.0 0.12 0.25 0.23 92 1007.8
20260506081558 57 0 0.0 2.0 0.11 0.23 0.21 92 1007.6
20260506073052 57 0 0.0 3.0 0.08 0.13 0.11 91 1007.4
20260506071558 57 360 0.0 1.0 0.08 0.12 0.10 91 1007.5
20260506061600 57 360 0.0 2.0 0.00 0.04 0.02 93 1007.6
20260506044554 58 0 0.0 1.0 0.02 0.03 0.01 91 1008.5
20260506043050 58 0 0.0 2.0 0.02 0.03 0.01 90 1008.3
20260506041604 58 0 0.0 1.0 0.03 0.03 0.01 88 1008.9
20260506040053 59 0 0.0 1.0 0.02 0.02 0.00 86 1008.6
20260506034554 59 0 0.0 1.0 0.01 0.01 0.01 84 1008.6
20260506033051 60 360 0.0 2.0 0.01 0.01 0.01 79 1008.8
20260506031555 62 0 0.0 2.0 0.00 0.00 0.00 72 1009.2
20260506030053 63 360 0.0 2.0 0.00 0.00 0.00 66 1009.4
20260506024552 63 0 0.0 1.0 0.00 0.00 0.00 65 1009.0
20260506023104 64 0 0.0 1.0 0.00 0.00 0.00 65 1008.8